This is the latest recevied weather packets stored in our database for station/object NC4M. If no packets are shown the sender has not sent any weather packets the latest 10 day(s).
| Time | Temp. | Humidity | Pressure | Rain* | Wind** | Luminosity | Snow |
|---|---|---|---|---|---|---|---|
| 1777331488 | 26.67° C | 58% | 1003.6 hPa | 0 mm | - | 10 W/m² | - |
| 1777331186 | 26.67° C | 59% | 1003.7 hPa | 0 mm | - | 13 W/m² | - |
| 1777330882 | 26.67° C | 60% | 1003.5 hPa | 0 mm | - | 14 W/m² | - |
| 1777330580 | 26.67° C | 64% | 1003.7 hPa | 0 mm | - | 19 W/m² | - |
| 1777330277 | 27.22° C | 63% | 1003.1 hPa | 0 mm | - | 35 W/m² | - |
| 1777329974 | 27.22° C | 62% | 1003 hPa | 0 mm | - | 31 W/m² | - |
| 1777329674 | 27.22° C | 63% | 1002.6 hPa | 0 mm | - | 58 W/m² | - |
| 1777329371 | 27.78° C | 63% | 1002.8 hPa | 0 mm | - | 63 W/m² | - |
| 1777329068 | 27.78° C | 60% | 1003 hPa | 0 mm | - | 77 W/m² | - |
| 1777328766 | 28.33° C | 62% | 1003.3 hPa | 0 mm | - | 77 W/m² | - |
| 1777328463 | 28.89° C | 60% | 1003 hPa | 0 mm | - | 108 W/m² | - |
| 1777328162 | 28.89° C | 58% | 1003.1 hPa | 0 mm | - | 134 W/m² | - |
| 1777327860 | 28.89° C | 59% | 1002.9 hPa | 0 mm | - | 177 W/m² | - |
| 1777327557 | 28.89° C | 59% | 1003 hPa | 0 mm | - | 231 W/m² | - |
| 1777327255 | 28.33° C | 59% | 1003.2 hPa | 0 mm | - | 368 W/m² | - |
| 1777326951 | 27.78° C | 61% | 1003 hPa | 0 mm | - | 189 W/m² | - |
| 1777326649 | 28.33° C | 62% | 1003.1 hPa | 0 mm | - | 103 W/m² | - |
| 1777326345 | 28.33° C | 62% | 1003 hPa | 0 mm | - | 127 W/m² | - |
| 1777326043 | 28.89° C | 57% | 1003.2 hPa | 0 mm | - | 187 W/m² | - |
| 1777325741 | 29.44° C | 59% | 1003.2 hPa | 0 mm | - | 270 W/m² | - |
| 1777325439 | 28.89° C | 59% | 1003.2 hPa | 0 mm | - | 326 W/m² | - |
| 1777325137 | 29.44° C | 59% | 1003.3 hPa | 0 mm | - | 162 W/m² | - |
| 1777324833 | 29.44° C | 59% | 1003.2 hPa | 0 mm | - | 312 W/m² | - |
| 1777324531 | 30° C | 56% | 1003.3 hPa | 0 mm | - | 147 W/m² | - |
| 1777324228 | 30° C | 55% | 1002.8 hPa | 0 mm | - | 447 W/m² | - |
* Rain latest hour (hover to see other rain measurements)
** Current wind speed in m/s (hover to see current wind gust speed)